This demonstration page uses our WeatherBlox Daily Observations layout. Learn more.

Left ArrowRight Arrow

Hourly Observations for March 5, 2015

Temp ( °F °C ) Dew Point ( °F °C ) Humidity (%) Winds ( mph kmh ) Pressure ( in mb ) Visibility ( mi km ) Precip ( " mm )
12:53 am 00:53 Clear 27 -2.8 14 -10 58 58 SW 15 24 30.10 1019 10 16 N/A
1:53 am 01:53 Clear 24 -4.4 14 -10 65 65 W 8 13 30.12 1020 10 16 N/A
2:53 am 02:53 Clear 27 -2.8 14 -10 58 58 WSW 15 24 30.11 1020 10 16 N/A
3:53 am 03:53 Clear 25 -3.9 14 -10 63 63 SW 15 24 30.12 1020 10 16 N/A
4:53 am 04:53 Clear 23 -5 14 -10 68 68 SW 14 22 30.15 1021 10 16 N/A
5:53 am 05:53 Clear 21 -6.1 13 -10.6 71 71 SW 13 20 30.17 1022 10 16 N/A
6:53 am 06:53 Sunny 22 -5.6 13 -10.6 68 68 SW 13 20 30.19 1022 10 16 N/A
7:53 am 07:53 Sunny 27 -2.8 14 -10 58 58 SW 16 26 30.19 1022 10 16 N/A
8:53 am 08:53 Sunny 33 0.6 15 -9.4 47 47 WSW 16 26 30.20 1023 10 16 N/A
9:53 am 09:53 Sunny 38 3.3 15 -9.4 39 39 SW 17 28 30.18 1022 10 16 N/A
10:53 am 10:53 Sunny 42 5.6 16 -8.9 35 35 SW 21 33 30.16 1021 10 16 N/A
11:53 am 11:53 Sunny 46 8 16 -9 29 29 SW 22 35 30.06 1018 10 16 N/A
12:53 pm 12:53 Sunny 50 10 15 -9.4 25 25 SW 14 22 30.11 1020 10 16 N/A
1:53 pm 13:53 Sunny 53 11.7 13 -10.6 20 20 WNW 20 31 30.10 1019 10 16 N/A
2:53 pm 14:53 Sunny 52 11.1 14 -10 22 22 W 18 30 30.09 1019 10 16 N/A
3:53 pm 15:53 Sunny 50 10 17 -8.3 27 27 WNW 20 31 30.11 1020 10 16 N/A
4:53 pm 16:53 Cloudy 49 9.4 18 -7.8 29 29 NW 13 20 30.12 1020 10 16 N/A
5:53 pm 17:53 Partly Cloudy 43 6.1 19 -7.2 38 38 WNW 6 9 30.14 1021 10 16 N/A
6:53 pm 18:53 Clear 35 1.7 18 -7.8 50 50 SW 8 13 30.16 1021 10 16 N/A
7:53 pm 19:53 Clear 32 undefined 18 -7.8 56 56 W 5 7 30.16 1021 10 16 N/A
8:53 pm 20:53 Clear 27 -2.8 17 -8.3 66 66 SW 9 15 30.16 1022 10 16 N/A
9:53 pm 21:53 Clear 34 1.1 21 -6.1 59 59 SW 10 17 30.15 1021 10 16 N/A
10:53 pm 22:53 Clear 35 1.7 20 -6.7 54 54 N N/A 30.14 1021 10 16 N/A
11:53 pm 23:53 Mostly Cloudy 33 0.6 20 -6.7 58 58 SW 10 17 30.13 1020 10 16 N/A

Powered by AerisWeather